Погода Ганюшкино

Хотите узнать прогноз погоды Ганюшкино? Тогда Вам сюда: Погода Ганюшкино

Поиск расширенной информации на нашем сайте:

Полезная информация:

Новости сайта



02.01.2020
Опубликован Долгосрочный прогноз погоды по городам России и ближнего зарубежья на январь 2020 года.
Карты: Прогноз на январь и февраль 2020 года, Сравнение прогнозируемой аномалии приземной температуры воздуха на январь 2020 года по разным моделям.




Погода Ганюшкино - сегодня

Время (UTC), дата Ветер
(°,м/с) 
Видим.   Явления Облачность Т
(°С)
Тd
(°С)
f(%) Тe
(°С)
Pmin
(гПа)
dP
(гПа)
Po
(мм)
O2
(г/м3)
Тmin Tmax R s Состояние
почвы
12 22.10.21 180 (Ю) 20000 м    ясно 
+17.6 +5.9 46 +18  1020.8  -0.6  768  290           
15 22.10.21 160 (Ю) 10 км    ясно 
+11.4 +4 60 +11  1020.4  -0.4  767  296    +19       
18 22.10.21 180 (Ю) 4000 м  дымка  ясно 
+10.2 +8.5 89 +10  1020.3  767  297    +19       
21 22.10.21 230 (ЮЗ) 0500 м  туман  ?/?  
+8.6 +8 96 +10  1020.2  -0.1  767  298           
00 23.10.21 180 (Ю) 0500 м  туман  ?/?  
+6.8 +6.4 97 +8  1020.1  -0.1  767  301           
03 23.10.21 200 (Ю) 0500 м  туман  ?/?  
+8.1 +7.7 97 +9  1020.3  0.2  767  299           
06 23.10.21 200 (Ю) 0200 м  туман  ?/?  
+12.5 +12.1 97 +17  1020.7  0.3  768  293  +6.7         
09 23.10.21 230 (ЮЗ) 4000 м  в посл. час туман  8/8 600 м 
[Sc]
+15.1 +12.7 86 +18  1020.4  -0.3  767  291           
12 23.10.21 180 (Ю) 20000 м  {туман}  ясно 
+18.7 +12.1 65 +23  1019.9  -0.5  767  287           
15 23.10.21 180 (Ю) 10 км    ясно 
+12.3 +9.2 81 +11  1019.1  -0.8  766  294    +19.4       
18 23.10.21 200 (Ю) 4000 м  дымка  ясно 
+8.2 +7.8 97 +8  1019  766  299    +19.4       
21 23.10.21 200 (Ю) 0500 м  туман  ?/?  
+6.1 +5.6 97 +7  1018.3  -0.7  766  301           
00 24.10.21 200 (Ю) 0200 м  туман  ?/?  
+5 +4.5 97 +6  1018.2  -0.1  766  302           
03 24.10.21 230 (ЮЗ) 0200 м  туман  ?/?  
+4.7 +4.2 97 +6  1017.7  -0.5  765  303           
06 24.10.21 180 (Ю) 0500 м  туман  ?/?  
+8.8 +8.4 97 +10  1018.1  0.4  766  297  +4.6         
09 24.10.21 200 (Ю) 4000 м  дымка{туман}  8/0 1000 м верхняя 
[Ci fib]
+14.9 +10.3 74 +16  1017.8  -0.4  765  291           
12 24.10.21 270 (З) 10 км    8/0 верхняя 
[Cs]
+18.7 +10.3 58 +21  1016.8  -1  765  287           
15 24.10.21 230 (ЮЗ) 10 км    ясно 
+16.3 +8.6 60 +18  1016.8  765  289    +18.8       
18 24.10.21 270 (З) 10 км    ясно 
+12.7 +8.1 74 +13  1016.8  765  293    +18.8       
21 24.10.21 320 (СЗ) 10 км    ясно 
+8.5 +5.5 81 +9  1015.9  -0.8  764  298           
00 25.10.21 290 (З) 10 км    ясно 
+6.9 +4.4 84 +7  1016.1  0.2  764  300           
03 25.10.21 340 (С) 10 км    10/0 средняя 
[Ac und]
+10.4 +7.7 83 +10  1016.3  0.2  764  295           
06 25.10.21 020 (С) 10 км    10/0 средняя 
[Ac und]
+10.5 +3.4 61 +10  1018.4  766  297  +6.5         
09 25.10.21 340 (С) 20000 м    8/0 средняя, верхняя 
[Ac trans|Cs]
+13.4 +1.1 43 +12  1019.1  0.7  766  294           
12 25.10.21 230 (ЮЗ) 10 км    8/0 средняя, верхняя 
[Ac trans|Cs]
+12.2 +0.4 44 +11  1020.4  1.3  767  296           
Время (UTC), дата Ветер
(°,м/с) 
Видим.   Явления Облачность Т
(°С)
Тd
(°С)
f(%) Тe
(°С)
Pmin
(гПа)
dP
(гПа)
Po
(мм)
O2
(г/м3)
Тmin Tmax R s Состояние
почвы

Для получения пояснительной информации подведите курсор к названию столбца.

ПОГОДА Ганюшкино - архив

Всё, что Вы хотите узнать о погоде Ганюшкино - удобно и подробно!

Выберите нужную дату (начиная с 1 января 2019* года) и нажмите кнопку "Найти".
Будут отображены архивные сводки погоды по пункту Ганюшкино, начиная с указанной даты.


Отображать данные в формате CSV (для использования в таблицах Excel)


Внимание! Наш архив погоды предназначен исключительно для личного некоммерческого использования в познавательных целях. Если Вам необходимы официальные справки о состоянии погоды (для производственных, юридических, коммерческих и т.п. целей), обращайтесь в органы Росгидромета.

*Примечание: данная дата относится к архиву по метеостанциям СССР (Россия, СНГ, Балтия).
Архив по метеостанциям Зарубежной Европы и Азии (кроме Китая) хранится 10 дней, по другим регионам земного шара (Китай, Африка, Америка, Австралия, Океания) - 1 день.

Ганюшкино - район местоположения метеостанции


Название, широта, долгота, высота метеостанции:
Ганюшкино 46.6°ш. 49.3°д. -23 м над ур. моря [Казахстан]

Дополнительная информация

В oтличие oт бoльшинства пoгoдных сайтoв мы публикуем пoдрoбную метеoинфoрмацию в детальнoм прoфессиoнальнoм фoрмате.

Характеристики температуры и влажнoсти вoздуха измеряются на высoте 2 м в тени вдали oт зданий и деревьев.
Скoрoсть ветра измеряется на высoте 10 м (на урoвне рoста челoвека скoрoсть ветра ниже в 1.5-2 раза). Если метеoстанция нахoдится в гoрoде или в лесу, тo скoрoсть ветра занижена на 2-4 м/с пo сравнению с oткрытым местoм. Скoрoсть ветра над акватoриями крупных рек и oзёр, а также на вершинах хoлмoв на 2-5 м/с выше, чем в oбычных услoвиях.
Атмoсфернoе давление в разных тoчках местнoсти мoжет значительнo oтличаться oт давления на метеoстанции, в зависимoсти oт услoвий рельефа (при пoдъёме на 10 м давление пoнижается примернo на 1 мм рт.ст.).